Location: Unspecified
(0.0000°N, 0.0000°E)
Time: 04:03:38
(UTC+00:00)

A-11 Canister half - Pass Details

Date: 25 April 2026
Orbit: 1523 x 1685 km, 47.3° (Epoch: 13 May)

Event Time Altitude Azimuth Distance (km) Brightness Sun altitude
Rises 18:30:42 0° 211° (SSW) 4,694 11.8 -8.0°
Reaches altitude 10° 18:33:49 10° 206° (SSW) 3,725 11.2 -8.7°
Maximum altitude 18:43:02 58° 129° (SE) 1,801 9.1 -11.0°
Drops below altitude 10° 18:52:31 10° 53° (NE) 3,837 10.7 -13.3°
Sets 18:55:45 0° 49° (NE) 4,843 11.3 -14.0°
